الصفحة الرئيسية
METAR-TAF:

METAR-TAF

مطار :

Kimball Municipal Airport (Robert E. Arraj Field)

كيمبال, نبراسكا, الولايات المتحدة

دائرة عرض: 41-11N, خط طول: 103-40W, ارتفاع: 1501 متر

مراقبة الطقس الحالي

تاريخ ووقت الإصدار 19 دقيقة قبل الساعة 14:55UTC
ريح 10 عقدة من الغرب/الشمال الغربي
درجة الحرارة 0°درجة مئوية
الرطوبة 43%
ضغط 1025 hPa
الرؤية: 16.1 كم
سماء صافية

METAR: KIBM 141455Z AUTO 29010KT 10SM CLR 00/M11 A3028 RMK AO2 T10021110

زمن: 08:14 (15:14 UTC)


TAF: مفقودة

أرصاد الطقس والتوقعات من أكثر من 4000 مطار (تقارير الطقس للمطار METAR والتنبؤ بالطقس بالمطارTAF).

المحطات المتاحة هي النقط الصفراء والحمراء على الخريطة.

حرك المؤشر فوق النقطة لمعرفة اسم المحطة.

ثم انقر لمعرفة أرصاد وتوقعات الطقس.

لتغيير الخارطة: اضغط على الأزرار الخضراء مع رمز الصليب الأسود للتكبير. على الزر الأخضر مع شرطة للتصغير، أو على الأسهم الخضراء للخرائط المجاورة.


METAR-TAF: